| time (UTC) | temp F | wind direction | speed MPH | gust MPH | rain 1hr in | rain 24hr in | rain mn in | humidity % | barometer mb |
| 20260502194001 | 78 | 96 | 2.0 | 7.0 | 0.00 | 0.00 | 0.00 | 35 | 1020.8 |
| 20260502193500 | 78 | 360 | 0.0 | 5.0 | 0.00 | 0.00 | 0.00 | 36 | 1020.9 |
| 20260502193004 | 77 | 360 | 2.0 | 5.0 | 0.00 | 0.00 | 0.00 | 34 | 1021.0 |
| 20260502192501 | 77 | 89 | 0.0 | 2.0 | 0.00 | 0.00 | 0.00 | 34 | 1020.9 |
| 20260502191505 | 76 | 103 | 2.0 | 7.0 | 0.00 | 0.00 | 0.00 | 34 | 1021.1 |
| 20260502190501 | 78 | 284 | 0.0 | 0.0 | 0.00 | 0.00 | 0.00 | 34 | 1021.2 |
| 20260502190006 | 76 | 284 | 0.0 | 2.0 | 0.00 | 0.00 | 0.00 | 34 | 1021.3 |
| 20260502185501 | 76 | 284 | 0.0 | 4.0 | 0.00 | 0.00 | 0.00 | 34 | 1021.4 |
| 20260502185000 | 76 | 331 | 1.0 | 4.0 | 0.00 | 0.00 | 0.00 | 42 | 1021.5 |
| 20260502184001 | 76 | 56 | 1.0 | 5.0 | 0.00 | 0.00 | 0.00 | 35 | 1021.5 |
| 20260502183004 | 75 | 86 | 0.0 | 1.0 | 0.00 | 0.00 | 0.00 | 36 | 1021.7 |
| 20260502182500 | 75 | 61 | 0.0 | 7.0 | 0.00 | 0.00 | 0.00 | 36 | 1021.8 |
| 20260502182001 | 75 | 44 | 3.0 | 7.0 | 0.00 | 0.00 | 0.00 | 35 | 1021.9 |
| 20260502181504 | 74 | 211 | 0.0 | 6.0 | 0.00 | 0.00 | 0.00 | 37 | 1021.9 |
| 20260502181000 | 75 | 101 | 0.0 | 6.0 | 0.00 | 0.00 | 0.00 | 36 | 1022.0 |
| 20260502180501 | 74 | 87 | 1.0 | 8.0 | 0.00 | 0.00 | 0.00 | 36 | 1022.1 |
| 20260502170501 | 74 | 88 | 0.0 | 0.0 | 0.00 | 0.00 | 0.00 | 37 | 1022.7 |
| 20260502163502 | 72 | 104 | 0.0 | 0.0 | 0.00 | 0.00 | 0.00 | 40 | 1022.8 |
| 20260502163012 | 72 | 84 | 0.0 | 0.0 | 0.00 | 0.00 | 0.00 | 41 | 1022.8 |
| 20260502162500 | 71 | 80 | 0.0 | 0.0 | 0.00 | 0.00 | 0.00 | 41 | 1022.8 |
| 20260502161505 | 70 | 96 | 0.0 | 0.0 | 0.00 | 0.00 | 0.00 | 42 | 1022.8 |
| 20260502161001 | 71 | 246 | 0.0 | 0.0 | 0.00 | 0.00 | 0.00 | 42 | 1022.8 |
| 20260502160502 | 70 | 248 | 0.0 | 0.0 | 0.00 | 0.00 | 0.00 | 44 | 1022.8 |
| 20260502152000 | 69 | 244 | 0.0 | 0.0 | 0.00 | 0.00 | 0.00 | 42 | 1022.5 |
| 20260502151518 | 69 | 244 | 0.0 | 0.0 | 0.00 | 0.00 | 0.00 | 46 | 1022.6 |
| 20260502151003 | 68 | 244 | 0.0 | 0.0 | 0.00 | 0.00 | 0.00 | 41 | 1022.5 |
| 20260502150500 | 68 | 244 | 0.0 | 0.0 | 0.00 | 0.00 | 0.00 | 44 | 1022.6 |
| 20260502130501 | 54 | 209 | 0.0 | 0.0 | 0.00 | 0.00 | 0.00 | 82 | 1022.0 |
| 20260502123500 | 51 | 209 | 0.0 | 0.0 | 0.00 | 0.00 | 0.00 | 89 | 1021.6 |
| 20260502123003 | 50 | 209 | 0.0 | 0.0 | 0.00 | 0.00 | 0.00 | 90 | 1021.4 |
| 20260502122459 | 50 | 209 | 0.0 | 0.0 | 0.00 | 0.00 | 0.00 | 90 | 1021.3 |
| 20260502122001 | 49 | 209 | 0.0 | 0.0 | 0.00 | 0.00 | 0.00 | 91 | 1021.2 |
| 20260502121000 | 49 | 209 | 0.0 | 0.0 | 0.00 | 0.00 | 0.00 | 91 | 1021.0 |
| 20260502120459 | 48 | 209 | 0.0 | 0.0 | 0.00 | 0.00 | 0.00 | 91 | 1020.9 |
| 20260502115500 | 48 | 209 | 0.0 | 0.0 | 0.00 | 0.00 | 0.00 | 91 | 1020.9 |
| 20260502113959 | 48 | 209 | 0.0 | 0.0 | 0.00 | 0.00 | 0.00 | 90 | 1020.5 |
| 20260502113459 | 48 | 209 | 0.0 | 0.0 | 0.00 | 0.00 | 0.00 | 90 | 1020.5 |
| 20260502113002 | 49 | 209 | 0.0 | 0.0 | 0.00 | 0.00 | 0.00 | 90 | 1020.3 |
| 20260502112459 | 49 | 209 | 0.0 | 0.0 | 0.00 | 0.00 | 0.00 | 90 | 1020.5 |
| 20260502111959 | 49 | 209 | 0.0 | 0.0 | 0.00 | 0.00 | 0.00 | 90 | 1020.4 |
| 20260502110959 | 49 | 209 | 0.0 | 0.0 | 0.00 | 0.00 | 0.00 | 90 | 1020.2 |
| 20260502110459 | 49 | 209 | 0.0 | 0.0 | 0.00 | 0.00 | 0.00 | 90 | 1020.1 |
| 20260502110005 | 49 | 209 | 0.0 | 0.0 | 0.00 | 0.00 | 0.00 | 90 | 1020.2 |
| 20260502105458 | 49 | 209 | 0.0 | 0.0 | 0.00 | 0.00 | 0.00 | 90 | 1020.1 |
| 20260502104958 | 49 | 209 | 0.0 | 0.0 | 0.00 | 0.00 | 0.00 | 90 | 1020.0 |
| 20260502103959 | 50 | 209 | 0.0 | 0.0 | 0.00 | 0.00 | 0.00 | 90 | 1020.0 |
| 20260502103458 | 49 | 209 | 0.0 | 1.0 | 0.00 | 0.00 | 0.00 | 90 | 1020.0 |
| 20260502103002 | 49 | 209 | 0.0 | 1.0 | 0.00 | 0.00 | 0.00 | 90 | 1019.9 |
| 20260502102459 | 49 | 209 | 0.0 | 0.0 | 0.00 | 0.00 | 0.00 | 89 | 1019.8 |
| 20260502101959 | 49 | 209 | 0.0 | 0.0 | 0.00 | 0.00 | 0.00 | 89 | 1019.6 |
| 20260502101504 | 49 | 209 | 0.0 | 0.0 | 0.00 | 0.00 | 0.00 | 88 | 1019.6 |
| 20260502100959 | 50 | 209 | 0.0 | 0.0 | 0.00 | 0.00 | 0.00 | 88 | 1019.6 |
| 20260502091503 | 52 | 209 | 0.0 | 0.0 | 0.00 | 0.00 | 0.00 | 85 | 1019.5 |
| 20260502090959 | 52 | 209 | 0.0 | 0.0 | 0.00 | 0.00 | 0.00 | 85 | 1019.5 |
| 20260502090458 | 52 | 209 | 0.0 | 0.0 | 0.00 | 0.00 | 0.00 | 85 | 1019.5 |
| 20260502071502 | 54 | 209 | 0.0 | 0.0 | 0.00 | 0.00 | 0.00 | 83 | 1019.7 |
| 20260502070958 | 54 | 209 | 0.0 | 0.0 | 0.00 | 0.00 | 0.00 | 83 | 1019.7 |
| 20260502070458 | 54 | 209 | 0.0 | 0.0 | 0.00 | 0.00 | 0.00 | 82 | 1019.7 |
| 20260502070004 | 54 | 209 | 0.0 | 0.0 | 0.00 | 0.00 | 0.00 | 82 | 1019.7 |
| 20260502065458 | 55 | 209 | 0.0 | 0.0 | 0.00 | 0.01 | 0.00 | 81 | 1019.7 |
| 20260502063958 | 55 | 209 | 0.0 | 0.0 | 0.00 | 0.01 | 0.00 | 81 | 1019.7 |
| 20260502063458 | 55 | 209 | 0.0 | 0.0 | 0.00 | 0.01 | 0.00 | 81 | 1019.7 |
| 20260502063001 | 55 | 209 | 0.0 | 0.0 | 0.00 | 0.01 | 0.00 | 81 | 1019.7 |
| 20260502062457 | 56 | 209 | 0.0 | 0.0 | 0.00 | 0.01 | 0.00 | 80 | 1019.7 |
| 20260502061957 | 56 | 209 | 0.0 | 0.0 | 0.00 | 0.01 | 0.00 | 80 | 1019.8 |
| 20260502061500 | 56 | 209 | 0.0 | 0.0 | 0.00 | 0.01 | 0.00 | 79 | 1019.8 |
| 20260502060957 | 56 | 209 | 0.0 | 0.0 | 0.00 | 0.01 | 0.00 | 79 | 1019.8 |
| 20260502060457 | 57 | 209 | 0.0 | 0.0 | 0.00 | 0.01 | 0.00 | 78 | 1019.8 |
| 20260502060008 | 57 | 209 | 0.0 | 0.0 | 0.00 | 0.01 | 0.00 | 78 | 1019.8 |
| 20260502055503 | 57 | 209 | 0.0 | 0.0 | 0.00 | 0.01 | 0.00 | 78 | 1019.7 |
| 20260502055003 | 57 | 209 | 0.0 | 0.0 | 0.00 | 0.01 | 0.00 | 78 | 1019.7 |
| 20260502054507 | 57 | 209 | 0.0 | 0.0 | 0.00 | 0.01 | 0.00 | 77 | 1019.7 |
| 20260502054004 | 57 | 209 | 0.0 | 0.0 | 0.00 | 0.01 | 0.00 | 77 | 1019.6 |
| 20260502053503 | 58 | 209 | 0.0 | 0.0 | 0.00 | 0.01 | 0.00 | 76 | 1019.6 |
| 20260502053007 | 58 | 209 | 0.0 | 0.0 | 0.00 | 0.01 | 0.00 | 76 | 1019.6 |
| 20260502052503 | 58 | 209 | 0.0 | 0.0 | 0.00 | 0.01 | 0.00 | 76 | 1019.5 |
| 20260502052003 | 58 | 209 | 0.0 | 1.0 | 0.00 | 0.01 | 0.00 | 76 | 1019.5 |
| 20260502051004 | 58 | 208 | 1.0 | 3.0 | 0.00 | 0.01 | 0.00 | 75 | 1019.4 |
| 20260502050503 | 58 | 201 | 0.0 | 3.0 | 0.00 | 0.01 | 0.00 | 76 | 1019.5 |
| 20260502050013 | 58 | 201 | 1.0 | 3.0 | 0.00 | 0.01 | 0.00 | 77 | 1019.5 |
| 20260502045503 | 58 | 109 | 0.0 | 1.0 | 0.00 | 0.01 | 0.01 | 79 | 1019.6 |
| 20260502044507 | 57 | 78 | 0.0 | 0.0 | 0.00 | 0.01 | 0.01 | 81 | 1019.6 |
| 20260502044003 | 57 | 78 | 0.0 | 0.0 | 0.00 | 0.01 | 0.01 | 80 | 1019.5 |
| 20260502043503 | 57 | 78 | 0.0 | 0.0 | 0.00 | 0.01 | 0.01 | 82 | 1019.6 |
| 20260502043007 | 58 | 78 | 0.0 | 0.0 | 0.00 | 0.01 | 0.01 | 81 | 1019.6 |
| 20260502042504 | 58 | 78 | 0.0 | 0.0 | 0.00 | 0.01 | 0.01 | 80 | 1019.6 |
| 20260502042004 | 59 | 78 | 0.0 | 0.0 | 0.00 | 0.01 | 0.01 | 78 | 1019.5 |
| 20260502040504 | 59 | 78 | 0.0 | 0.0 | 0.00 | 0.01 | 0.01 | 77 | 1019.3 |
| 20260502035503 | 59 | 78 | 0.0 | 0.0 | 0.00 | 0.01 | 0.01 | 77 | 1019.4 |
| 20260502035003 | 59 | 78 | 0.0 | 0.0 | 0.00 | 0.01 | 0.01 | 77 | 1019.4 |
| 20260502034004 | 59 | 78 | 0.0 | 0.0 | 0.00 | 0.01 | 0.01 | 79 | 1019.3 |
| 20260502033503 | 59 | 78 | 0.0 | 0.0 | 0.00 | 0.01 | 0.01 | 79 | 1019.4 |
| 20260502033007 | 60 | 78 | 0.0 | 0.0 | 0.00 | 0.01 | 0.01 | 78 | 1019.3 |
| 20260502032504 | 60 | 78 | 0.0 | 0.0 | 0.00 | 0.01 | 0.01 | 77 | 1019.3 |
| 20260502032004 | 59 | 78 | 0.0 | 0.0 | 0.00 | 0.01 | 0.01 | 78 | 1019.2 |
| 20260502031506 | 59 | 67 | 0.0 | 0.0 | 0.00 | 0.01 | 0.01 | 80 | 1019.2 |
| 20260502031003 | 59 | 67 | 0.0 | 0.0 | 0.00 | 0.01 | 0.01 | 80 | 1019.1 |
| 20260502030504 | 59 | 67 | 0.0 | 0.0 | 0.00 | 0.01 | 0.01 | 79 | 1019.1 |
| 20260502030009 | 59 | 67 | 0.0 | 0.0 | 0.00 | 0.01 | 0.01 | 79 | 1019.0 |
| 20260502025503 | 60 | 67 | 0.0 | 0.0 | 0.00 | 0.01 | 0.01 | 79 | 1019.0 |
| 20260502025003 | 60 | 67 | 0.0 | 0.0 | 0.00 | 0.01 | 0.01 | 77 | 1019.0 |
| 20260502024507 | 60 | 67 | 0.0 | 0.0 | 0.00 | 0.01 | 0.01 | 78 | 1018.9 |
| 20260502024004 | 60 | 67 | 0.0 | 0.0 | 0.00 | 0.01 | 0.01 | 76 | 1018.6 |
| 20260502023503 | 60 | 67 | 0.0 | 0.0 | 0.00 | 0.01 | 0.01 | 75 | 1018.5 |
| 20260502023007 | 61 | 67 | 0.0 | 0.0 | 0.00 | 0.01 | 0.01 | 76 | 1018.5 |
| 20260502022504 | 61 | 67 | 0.0 | 0.0 | 0.00 | 0.01 | 0.01 | 77 | 1018.6 |
| 20260502022005 | 61 | 67 | 0.0 | 0.0 | 0.00 | 0.01 | 0.01 | 78 | 1018.5 |
| 20260502021508 | 61 | 67 | 0.0 | 0.0 | 0.00 | 0.01 | 0.01 | 78 | 1018.5 |
| 20260502021003 | 61 | 67 | 0.0 | 0.0 | 0.00 | 0.01 | 0.01 | 77 | 1018.4 |
| 20260502020503 | 61 | 67 | 0.0 | 0.0 | 0.00 | 0.01 | 0.01 | 77 | 1018.3 |
| 20260502020008 | 61 | 67 | 0.0 | 0.0 | 0.00 | 0.01 | 0.01 | 78 | 1018.2 |
| 20260502015002 | 61 | 67 | 0.0 | 0.0 | 0.00 | 0.01 | 0.01 | 78 | 1017.9 |
| 20260502014505 | 61 | 67 | 0.0 | 0.0 | 0.00 | 0.01 | 0.01 | 77 | 1017.8 |
| 20260502014002 | 61 | 67 | 0.0 | 0.0 | 0.00 | 0.01 | 0.01 | 78 | 1017.7 |
| 20260502013502 | 61 | 67 | 0.0 | 0.0 | 0.00 | 0.01 | 0.01 | 76 | 1017.5 |
| 20260502013007 | 61 | 67 | 0.0 | 0.0 | 0.00 | 0.01 | 0.01 | 75 | 1017.3 |
| 20260502012502 | 61 | 67 | 0.0 | 0.0 | 0.00 | 0.01 | 0.01 | 76 | 1017.3 |
| 20260502012003 | 61 | 67 | 0.0 | 0.0 | 0.00 | 0.01 | 0.01 | 76 | 1017.2 |
| 20260502011507 | 62 | 67 | 0.0 | 0.0 | 0.00 | 0.01 | 0.01 | 75 | 1017.1 |
| 20260502011002 | 62 | 67 | 0.0 | 0.0 | 0.00 | 0.01 | 0.01 | 77 | 1017.0 |
| 20260502010503 | 62 | 67 | 0.0 | 0.0 | 0.00 | 0.01 | 0.01 | 75 | 1017.0 |
| 20260502010008 | 62 | 67 | 0.0 | 0.0 | 0.00 | 0.01 | 0.01 | 75 | 1017.0 |
| 20260502005502 | 62 | 67 | 0.0 | 0.0 | 0.00 | 0.01 | 0.01 | 74 | 1016.9 |
| 20260502005003 | 62 | 67 | 0.0 | 0.0 | 0.00 | 0.01 | 0.01 | 74 | 1016.8 |
| 20260502004506 | 62 | 67 | 0.0 | 0.0 | 0.00 | 0.01 | 0.01 | 72 | 1016.8 |
| 20260502004003 | 63 | 67 | 0.0 | 0.0 | 0.00 | 0.01 | 0.01 | 72 | 1016.7 |
| 20260502003502 | 63 | 67 | 0.0 | 0.0 | 0.00 | 0.01 | 0.01 | 72 | 1016.6 |
| 20260502003006 | 63 | 67 | 0.0 | 0.0 | 0.00 | 0.01 | 0.01 | 72 | 1016.6 |
| 20260502002503 | 63 | 67 | 0.0 | 0.0 | 0.00 | 0.01 | 0.01 | 71 | 1016.6 |
| 20260502002002 | 64 | 67 | 0.0 | 0.0 | 0.00 | 0.01 | 0.01 | 73 | 1016.5 |
| 20260502001505 | 64 | 67 | 0.0 | 0.0 | 0.00 | 0.01 | 0.01 | 72 | 1016.4 |
| 20260502001002 | 64 | 67 | 0.0 | 0.0 | 0.00 | 0.01 | 0.01 | 70 | 1016.3 |
| 20260502000504 | 64 | 67 | 0.0 | 0.0 | 0.00 | 0.01 | 0.01 | 69 | 1016.2 |
| 20260502000006 | 65 | 67 | 0.0 | 0.0 | 0.00 | 0.01 | 0.01 | 71 | 1016.1 |
| 20260501235502 | 65 | 67 | 0.0 | 0.0 | 0.00 | 0.01 | 0.01 | 72 | 1016.1 |
| 20260501235002 | 65 | 67 | 0.0 | 0.0 | 0.00 | 0.01 | 0.01 | 71 | 1016.0 |
| 20260501234504 | 65 | 67 | 0.0 | 0.0 | 0.00 | 0.01 | 0.01 | 70 | 1016.0 |
| 20260501234002 | 66 | 67 | 0.0 | 0.0 | 0.00 | 0.01 | 0.01 | 65 | 1015.9 |
| 20260501233501 | 66 | 67 | 0.0 | 0.0 | 0.00 | 0.01 | 0.01 | 65 | 1016.0 |
| 20260501233004 | 66 | 67 | 0.0 | 0.0 | 0.00 | 0.01 | 0.01 | 63 | 1015.9 |
| 20260501232501 | 66 | 67 | 0.0 | 0.0 | 0.00 | 0.01 | 0.01 | 66 | 1015.9 |
| 20260501231506 | 66 | 67 | 0.0 | 0.0 | 0.00 | 0.01 | 0.01 | 59 | 1015.8 |
| 20260501230501 | 66 | 67 | 0.0 | 0.0 | 0.00 | 0.01 | 0.01 | 60 | 1015.8 |
| 20260501230010 | 66 | 67 | 0.0 | 0.0 | 0.00 | 0.01 | 0.01 | 61 | 1015.7 |
| 20260501225504 | 66 | 67 | 0.0 | 0.0 | 0.00 | 0.01 | 0.01 | 60 | 1015.7 |
| 20260501225003 | 66 | 67 | 0.0 | 3.0 | 0.00 | 0.01 | 0.01 | 60 | 1015.8 |
| 20260501224509 | 66 | 67 | 0.0 | 3.0 | 0.00 | 0.01 | 0.01 | 57 | 1015.8 |
| 20260501224002 | 66 | 65 | 0.0 | 0.0 | 0.00 | 0.01 | 0.01 | 56 | 1015.8 |
| 20260501223503 | 66 | 66 | 0.0 | 2.0 | 0.00 | 0.01 | 0.01 | 56 | 1015.7 |
| 20260501222505 | 66 | 68 | 1.0 | 3.0 | 0.00 | 0.01 | 0.01 | 55 | 1015.6 |
| 20260501222002 | 66 | 75 | 1.0 | 3.0 | 0.00 | 0.01 | 0.01 | 55 | 1015.6 |
| 20260501221505 | 66 | 63 | 0.0 | 1.0 | 0.00 | 0.01 | 0.01 | 57 | 1015.6 |
| 20260501220502 | 66 | 63 | 0.0 | 4.0 | 0.00 | 0.01 | 0.01 | 58 | 1015.6 |
| 20260501220008 | 66 | 63 | 0.0 | 4.0 | 0.00 | 0.01 | 0.01 | 57 | 1015.7 |
| 20260501215502 | 66 | 74 | 1.0 | 3.0 | 0.00 | 0.01 | 0.01 | 56 | 1015.6 |
| 20260501214506 | 66 | 64 | 0.0 | 3.0 | 0.00 | 0.01 | 0.01 | 57 | 1015.7 |
| 20260501214002 | 66 | 71 | 0.0 | 2.0 | 0.00 | 0.01 | 0.01 | 57 | 1015.7 |
| 20260501213502 | 66 | 72 | 0.0 | 3.0 | 0.00 | 0.01 | 0.01 | 57 | 1015.7 |
| 20260501213006 | 66 | 61 | 0.0 | 4.0 | 0.00 | 0.01 | 0.01 | 58 | 1015.8 |
| 20260501212502 | 66 | 45 | 0.0 | 5.0 | 0.00 | 0.01 | 0.01 | 60 | 1015.9 |
| 20260501212005 | 66 | 45 | 1.0 | 5.0 | 0.00 | 0.01 | 0.01 | 57 | 1015.9 |
| 20260501211506 | 66 | 62 | 1.0 | 5.0 | 0.00 | 0.01 | 0.01 | 58 | 1016.0 |
| 20260501210502 | 66 | 63 | 0.0 | 2.0 | 0.00 | 0.01 | 0.01 | 58 | 1016.2 |
| 20260501210007 | 66 | 60 | 0.0 | 4.0 | 0.00 | 0.01 | 0.01 | 58 | 1016.3 |
| 20260501205501 | 65 | 60 | 0.0 | 4.0 | 0.00 | 0.01 | 0.01 | 59 | 1016.3 |
| 20260501205001 | 65 | 82 | 1.0 | 6.0 | 0.00 | 0.01 | 0.01 | 57 | 1016.3 |
| 20260501204001 | 65 | 66 | 0.0 | 7.0 | 0.00 | 0.01 | 0.01 | 61 | 1016.5 |
| 20260501203501 | 65 | 91 | 1.0 | 7.0 | 0.00 | 0.01 | 0.01 | 58 | 1016.5 |
| 20260501203005 | 65 | 40 | 2.0 | 8.0 | 0.00 | 0.01 | 0.01 | 58 | 1016.6 |
| 20260501202501 | 65 | 42 | 2.0 | 8.0 | 0.00 | 0.01 | 0.01 | 57 | 1016.7 |
| 20260501201001 | 65 | 66 | 1.0 | 8.0 | 0.00 | 0.01 | 0.01 | 56 | 1016.8 |
| 20260501200501 | 65 | 40 | 1.0 | 8.0 | 0.00 | 0.01 | 0.01 | 55 | 1016.7 |
| 20260501200006 | 65 | 49 | 2.0 | 10.0 | 0.00 | 0.01 | 0.01 | 55 | 1016.5 |
| 20260501195501 | 65 | 45 | 3.0 | 10.0 | 0.00 | 0.01 | 0.01 | 56 | 1016.5 |
| 20260501195001 | 65 | 57 | 2.0 | 10.0 | 0.00 | 0.01 | 0.01 | 56 | 1016.5 |
| 20260501194504 | 65 | 65 | 2.0 | 9.0 | 0.00 | 0.01 | 0.01 | 56 | 1016.5 |